CST,Max TemperatureF,Mean TemperatureF,Min TemperatureF,Max Dew PointF,MeanDew PointF,Min DewpointF,Max Humidity, Mean Humidity, Min Humidity, Max Sea Level PressureIn, Mean Sea Level PressureIn, Min Sea Level PressureIn, Max VisibilityMiles, Mean VisibilityMiles, Min VisibilityMiles, Max Wind SpeedMPH, Mean Wind SpeedMPH, Max Gust SpeedMPH,PrecipitationIn, CloudCover, Events, WindDirDegrees
2012-12-1,70,62,53,59,56,52,94,81,61,30.08,29.98,29.88,10,9,5,29,13,37,0.00,5,,169
2012-12-2,75,69,63,61,59,57,90,74,53,30.08,30.00,29.96,10,10,10,20,15,26,0.00,3,,194
2012-12-3,73,68,63,58,56,52,84,68,46,29.96,29.92,29.85,10,10,10,26,17,37,0.00,2,,179
2012-12-4,64,54,43,59,49,32,100,80,42,30.34,30.10,29.96,10,8,3,16,9,22,1.81,6,Rain-Thunderstorm,346
2012-12-5,59,46,34,37,31,26,89,56,28,30.34,30.23,30.09,10,10,10,12,7,,0.00,0,,103
2012-12-6,64,52,41,48,42,33,89,71,46,30.06,29.94,29.86,10,10,10,14,8,18,0.00,1,,140
2012-12-7,57,52,48,54,50,46,96,90,77,29.91,29.87,29.81,10,7,4,7,3,,0.00,8,Rain,134
2012-12-8,57,52,48,52,50,48,100,92,74,29.95,29.89,29.83,10,4,0,10,4,,0.00,8,Fog-Rain,41
2012-12-9,53,45,30,52,46,21,100,90,65,30.04,29.84,29.76,10,5,2,15,5,22,0.08,7,Rain-Thunderstorm,356
2012-12-10,32,26,21,20,18,15,85,72,59,30.14,30.07,30.02,10,10,10,16,10,21,0.00,3,,291
2012-12-11,46,32,19,20,15,12,88,58,27,30.22,30.16,30.12,10,10,10,12,5,,0.00,0,,195
2012-12-12,50,38,25,18,15,7,72,46,18,30.32,30.26,30.24,10,10,10,16,7,,0.00,0,,160
2012-12-13,57,46,34,23,20,17,50,39,26,30.27,30.23,30.17,10,10,10,20,10,26,0.00,0,,160
2012-12-14,55,46,37,40,29,20,85,57,28,30.18,30.03,29.83,10,10,10,17,9,30,0.14,5,Rain-Thunderstorm,141
2012-12-15,62,55,48,48,42,34,90,67,44,29.80,29.74,29.70,10,10,7,23,15,36,0.09,2,Rain,195
2012-12-16,63,54,43,37,35,33,80,53,34,29.75,29.70,29.62,10,10,10,15,8,21,0.00,0,,241
2012-12-17,42,40,37,38,37,32,100,93,79,29.85,29.76,29.70,10,3,0,13,8,,0.00,6,Fog-Rain,293
2012-12-18,60,48,36,37,34,31,82,61,36,29.85,29.80,29.76,10,10,10,16,8,,0.00,0,,180
2012-12-19,64,54,44,59,47,35,86,75,64,29.83,29.67,29.44,10,10,9,20,12,31,0.04,3,Rain-Thunderstorm,136
2012-12-20,55,42,30,47,28,14,93,72,48,30.32,29.82,29.44,10,9,2,38,21,48,0.02,5,Rain-Snow,271
2012-12-21,48,36,24,30,19,15,79,53,27,30.40,30.33,30.28,10,10,10,9,6,,0.00,0,,153
2012-12-22,60,46,32,27,19,12,64,35,15,30.26,30.14,30.01,10,10,10,17,9,24,0.00,0,,187
2012-12-23,61,52,39,47,42,32,83,71,56,29.97,29.90,29.82,10,10,10,14,10,21,0.00,2,,214
2012-12-24,39,32,24,31,25,21,93,80,60,30.04,29.99,29.86,10,7,3,14,8,17,0.00,1,,357
2012-12-25,30,28,24,23,21,18,85,77,69,30.05,30.00,29.93,10,8,5,26,15,34,0.00,5,,33
2012-12-26,30,24,17,20,17,14,86,76,64,30.21,30.16,30.08,10,10,10,14,9,22,0.00,5,,345
2012-12-27,39,32,25,26,22,20,84,67,47,30.14,30.03,29.94,10,10,10,14,8,21,0.00,1,,127
2012-12-28,35,30,24,30,28,17,93,85,74,30.09,29.96,29.90,10,6,0,15,7,,0.01,8,Fog-Rain-Snow,295
2012-12-29,33,25,17,21,16,12,86,75,56,30.45,30.29,30.13,10,9,6,10,8,,0.00,3,,279
2012-12-30,39,29,19,23,18,14,88,64,43,30.46,30.37,30.24,10,10,10,12,7,,0.00,0,,162
2012-12-31,37,35,33,36,34,30,100,94,85,30.24,30.10,29.98,10,4,0,10,7,,0.59,8,Fog-Rain-Snow,139